Wind_Speed
12 12 11 10 9 8 8 7 7 7 7 7 7 7 7 7 8 8 8 8 9 9 10 10 9 9 10 11 12 12 12 12 13 13 13 13 14 14 14 14 14 14 14
14 13 13 12 11 10 9 9 8 8 8 8 9 9 9 9 9 9 9 10 10 10 11 11 11 11 12 12 13 13 13 13 14 14 14 15 15 15 15 15 15 15 16
16 15 14 13 12 11 11 10 10 9 9 9 10 10 10 10 10 10 10 10 11 11 11 12 12 12 13 13 13 13 14 14 15 15 15 16 16 16 15 16 16 16 16
17 16 15 15 14 13 12 11 11 10 10 10 10 10 10 10 10 10 11 11 11 12 12 12 12 12 13 13 13 14 14 15 16 16 16 17 17 17 16 17 17 17 17
18 18 16 15 15 14 13 12 12 11 11 11 11 11 11 11 11 11 12 12 12 13 13 13 13 13 13 14 14 15 15 16 16 17 17 18 17 17 17 17 17 18 18
20 19 17 16 15 15 14 13 13 13 12 12 12 12 12 12 12 13 13 13 13 13 13 13 14 14 15 15 16 16 17 17 17 17 18 18 18 18 18 18 18 19 20
21 20 19 18 17 16 15 15 14 14 14 13 13 13 13 13 13 14 14 15 15 14 14 14 15 16 16 17 17 17 18 18 18 18 19 19 18 18 19 20 20 21 21
23 22 21 20 18 17 17 16 16 15 15 15 15 14 15 14 14 15 15 15 16 15 16 16 16 17 17 17 18 18 18 19 19 19 19 19 19 20 21 21 22 22 23
24 23 22 21 20 19 18 18 17 16 16 16 16 16 16 16 15 15 16 16 16 16 17 17 17 18 18 18 18 19 19 19 20 20 21 21 22 22 23 23 24 24 25
26 25 24 23 22 21 20 19 19 18 18 17 17 17 17 17 17 17 17 17 17 18 18 18 18 18 18 18 19 19 20 21 21 21 22 23 23 24 25 25 25 26 26
28 27 26 25 24 23 22 21 20 20 19 18 18 18 18 19 18 18 18 18 18 18 19 19 19 19 19 20 20 21 21 22 22 23 24 24 25 26 26 27 27 27 28
29 28 27 26 25 25 24 23 22 21 20 20 19 20 20 19 19 19 19 19 19 19 19 20 20 20 20 20 21 21 22 23 24 24 25 26 26 27 28 28 28 29 29
31 30 29 28 27 26 25 24 23 22 22 21 21 21 21 20 20 20 20 20 20 20 21 21 21 21 21 21 22 22 23 24 25 25 26 27 27 28 28 29 29 30 30
32 31 30 29 28 27 26 25 24 24 23 22 22 22 22 22 21 21 21 21 21 22 22 22 22 22 22 23 24 24 25 26 26 26 27 28 29 29 30 30 31 32 33
34 33 31 30 29 28 27 26 26 25 24 24 23 23 23 23 23 23 22 22 23 23 23 23 23 23 23 24 25 25 25 26 27 28 29 30 30 31 31 32 33 34 34
35 34 33 32 31 29 29 28 27 26 26 25 25 25 24 24 24 24 24 24 24 24 25 24 24 24 25 26 26 26 27 28 29 30 31 32 32 32 33 34 35 35 36
36 36 35 34 32 31 30 30 29 28 28 27 26 26 26 26 25 25 25 25 25 25 25 26 26 26 26 27 28 28 29 30 31 32 33 33 34 34 35 36 36 37 37
38 37 36 35 33 32 32 31 30 30 29 28 28 27 27 27 27 26 27 26 26 26 27 27 28 28 28 28 30 30 31 32 33 33 34 34 35 36 36 37 37 37 37
38 38 37 35 34 33 32 32 32 31 31 30 29 29 28 28 28 28 27 27 28 28 28 28 29 29 29 30 31 32 33 33 34 34 35 35 36 36 37 37 38 38 39
39 39 38 37 35 34 33 33 32 32 32 31 31 30 30 30 29 29 29 29 29 29 29 30 30 31 31 32 32 33 34 35 36 36 36 36 37 37 38 39 39 40 41
40 39 39 38 37 35 35 34 34 34 33 33 33 32 31 31 30 30 30 30 30 30 30 31 31 32 32 33 34 35 36 36 36 36 37 37 38 38 39 40 41 42 43
41 41 40 39 38 36 35 35 35 35 35 34 33 32 32 32 31 31 31 31 31 31 31 31 32 33 34 34 35 36 37 36 35 36 37 38 39 40 41 42 43 44 45
42 41 41 40 38 38 37 37 37 36 36 36 35 34 33 33 32 32 32 31 32 32 33 33 34 34 34 35 36 37 38 37 37 37 38 39 40 42 43 44 45 46 47
42 42 42 41 40 39 38 38 37 37 36 36 35 35 34 34 33 33 33 33 33 33 34 34 35 35 36 36 37 38 38 39 39 39 39 41 43 44 45 46 47 49 50
43 43 42 42 41 40 40 39 38 37 37 36 36 35 35 34 34 34 34 34 34 34 35 36 36 37 37 38 38 39 39 40 40 41 41 42 44 46 47 48 50 51 52
44 44 43 42 41 41 41 40 39 38 38 37 36 36 36 35 35 35 35 35 36 36 37 37 38 38 38 38 39 40 41 41 42 43 43 44 46 47 49 50 52 52 52
Wind_Direction
221 223 226 229 231 235 240 246 251 257 263 267 271 276 280 283 287 294 299 303 307 310 313 313 309 310 311 311 311 312 313 312 311 311 310 310 310 309 309 307 307 306 306
226 227 229 232 234 238 243 247 252 259 264 267 270 274 277 282 287 291 295 300 304 306 308 309 307 308 310 311 311 313 313 312 311 311 310 309 308 306 306 305 305 305 305
228 229 230 234 236 238 242 248 252 257 263 267 270 272 276 282 287 290 294 298 300 302 304 306 307 306 306 309 310 311 311 310 310 310 309 308 306 305 304 304 304 303 303
229 230 231 234 236 238 242 247 252 256 261 264 269 272 275 281 286 290 293 295 298 300 302 304 305 306 306 307 307 308 308 308 307 307 307 306 305 303 302 302 302 302 301
229 230 232 234 236 238 242 247 251 256 260 263 266 270 274 279 283 288 292 294 297 298 300 301 302 303 305 305 305 306 305 306 306 306 306 305 304 302 301 300 300 300 300
230 231 232 234 236 238 243 248 253 255 259 261 266 271 273 277 281 286 290 293 294 296 297 298 299 300 302 302 303 303 303 304 305 305 305 304 302 301 300 300 300 300 299
230 231 232 234 237 240 243 248 252 255 258 261 265 270 273 276 280 284 288 291 292 293 294 296 297 297 299 300 301 301 301 302 303 304 304 304 302 301 300 301 301 300 299
230 231 232 234 237 241 245 249 252 254 257 260 263 268 271 275 279 283 287 289 291 292 294 296 296 296 297 298 298 298 299 301 303 303 304 303 301 299 300 300 300 299 298
231 232 234 236 240 243 246 248 251 254 257 260 263 267 270 274 278 282 285 287 288 291 293 295 295 295 296 297 297 297 299 300 301 302 302 300 299 298 298 299 298 298 297
232 234 236 238 241 244 247 249 251 253 256 260 263 266 270 273 277 280 283 284 287 289 291 293 293 294 296 296 296 296 298 299 299 300 300 300 299 298 298 298 297 296 296
233 235 238 240 242 244 247 250 251 254 257 260 263 266 269 272 274 277 280 283 286 288 290 291 291 292 294 294 294 295 297 298 298 299 300 300 300 299 298 297 297 296 295
234 236 238 241 242 244 247 250 251 254 257 259 262 265 268 271 273 276 278 281 284 287 288 290 290 291 293 294 294 295 296 297 297 298 299 300 300 299 299 298 297 296 296
234 236 238 240 242 244 246 249 251 254 256 258 261 264 267 270 272 274 276 280 282 285 287 289 290 290 292 294 295 296 296 297 297 298 299 300 300 299 298 298 297 297 296
235 236 238 240 242 244 246 248 250 253 256 258 261 264 266 268 271 273 275 278 280 283 286 288 288 290 291 293 294 295 296 297 298 299 299 300 300 299 298 297 297 297 296
235 237 238 240 241 243 246 248 250 253 256 258 260 263 265 267 269 271 273 276 278 281 283 285 287 289 291 293 296 296 296 297 298 299 299 300 300 299 298 298 297 297 297
236 237 238 239 241 243 245 247 250 253 255 257 260 262 264 267 269 271 273 276 278 280 282 284 286 288 291 293 295 296 296 296 297 298 299 299 299 299 299 298 298 298 297
236 236 237 239 241 243 245 247 250 252 255 257 260 262 263 266 268 271 273 275 278 280 281 282 284 286 289 292 294 296 297 298 298 298 298 298 298 298 299 299 299 299 298
236 237 239 241 242 244 246 248 249 252 254 256 258 261 263 265 267 271 273 274 276 278 279 281 283 286 288 291 293 295 297 298 299 299 298 298 298 299 299 299 299 299 299
236 238 240 241 242 244 246 248 250 252 254 256 258 260 263 265 267 269 272 274 276 278 279 280 282 285 287 290 292 294 296 297 298 298 299 299 299 300 300 300 300 300 300
236 239 240 241 242 243 245 248 250 253 255 256 258 260 262 264 266 269 271 273 276 277 279 281 283 284 286 289 291 293 294 296 297 298 299 299 299 299 300 300 301 302 302
236 238 240 241 243 243 245 247 249 252 255 257 259 260 262 264 266 269 272 273 275 277 279 281 283 286 288 289 291 292 294 295 296 297 298 298 299 299 300 301 301 302 303
236 238 240 241 242 243 245 247 249 252 255 257 259 261 263 264 266 268 271 273 275 277 279 281 284 287 290 291 292 293 293 294 295 297 297 298 298 299 299 300 301 302 302
236 238 239 240 242 243 245 247 249 252 255 257 259 260 262 264 265 267 270 273 276 278 280 283 285 288 290 292 294 295 295 294 294 296 297 298 299 299 300 301 301 302 302
235 237 238 240 241 243 245 247 249 251 254 256 257 259 261 263 265 267 270 272 275 278 280 283 285 288 290 292 294 296 296 296 296 296 297 298 299 300 301 301 302 302 302
235 236 237 239 240 242 244 246 248 251 253 254 256 259 260 262 264 267 270 272 275 278 281 283 285 288 290 292 294 295 297 297 297 297 298 298 299 300 301 302 302 302 303
235 236 237 238 240 242 244 246 248 249 251 254 255 258 260 262 265 267 270 272 275 278 280 283 285 287 290 292 294 296 297 297 297 298 298 299 300 301 302 303 303 303 303
Height
5874 5875 5876 5877 5878 5879 5880 5880 5881 5881 5882 5882 5883 5883 5882 5882 5882 5882 5882 5881 5881 5880 5879 5878 5877 5876 5875 5875 5873 5872 5871 5870 5868 5867 5866 5864 5863 5862 5860 5859 5858 5856 5855
5872 5874 5875 5876 5877 5878 5879 5879 5880 5881 5881 5881 5882 5882 5882 5881 5881 5881 5880 5880 5879 5878 5878 5877 5876 5875 5874 5873 5872 5871 5869 5868 5867 5865 5864 5862 5861 5860 5858 5857 5855 5854 5853
5870 5872 5873 5874 5875 5876 5877 5878 5879 5879 5880 5880 5880 5880 5880 5880 5880 5880 5879 5878 5878 5877 5876 5875 5874 5873 5872 5871 5870 5869 5868 5866 5865 5863 5862 5860 5859 5857 5856 5854 5853 5851 5850
5867 5869 5870 5872 5873 5874 5875 5876 5877 5878 5878 5879 5879 5879 5879 5879 5878 5878 5877 5877 5876 5875 5874 5874 5873 5871 5871 5870 5868 5867 5866 5864 5863 5861 5860 5858 5856 5855 5853 5852 5850 5849 5847
5865 5866 5868 5870 5871 5872 5873 5874 5875 5876 5876 5877 5877 5877 5877 5877 5877 5876 5876 5875 5874 5873 5873 5872 5871 5870 5869 5868 5866 5865 5863 5862 5860 5859 5857 5855 5854 5852 5850 5849 5847 5846 5844
5862 5864 5865 5867 5868 5870 5871 5872 5873 5874 5874 5875 5875 5875 5875 5875 5875 5874 5874 5873 5872 5871 5871 5870 5869 5868 5866 5865 5864 5863 5861 5859 5858 5856 5854 5853 5851 5849 5848 5846 5844 5843 5841
5858 5860 5862 5864 5866 5867 5868 5870 5871 5871 5872 5872 5872 5873 5873 5873 5872 5872 5871 5871 5870 5869 5868 5867 5866 5865 5864 5863 5861 5860 5858 5856 5855 5853 5851 5849 5848 5846 5844 5843 5841 5839 5837
5855 5857 5859 5861 5863 5864 5866 5867 5868 5869 5869 5870 5870 5870 5870 5870 5870 5870 5869 5868 5867 5867 5866 5865 5864 5862 5861 5860 5858 5857 5855 5853 5852 5850 5848 5846 5844 5842 5841 5839 5837 5835 5833
5851 5853 5856 5858 5859 5861 5862 5864 5865 5866 5866 5867 5867 5868 5868 5867 5867 5867 5866 5866 5865 5864 5863 5862 5861 5859 5858 5857 5855 5853 5852 5850 5848 5847 5845 5843 5841 5839 5837 5835 5832 5830 5828
5847 5849 5852 5854 5856 5858 5859 5860 5861 5862 5863 5864 5865 5865 5865 5864 5864 5864 5863 5863 5862 5861 5860 5859 5858 5856 5855 5853 5852 5850 5848 5847 5845 5843 5841 5839 5837 5834 5832 5830 5828 5826 5823
5842 5845 5847 5850 5852 5854 5855 5857 5858 5859 5860 5861 5861 5862 5861 5861 5861 5861 5860 5859 5859 5858 5857 5855 5854 5853 5851 5850 5848 5847 5845 5843 5841 5839 5837 5835 5832 5830 5828 5825 5823 5820 5818
5838 5840 5843 5845 5847 5849 5851 5852 5854 5855 5856 5857 5858 5858 5858 5858 5858 5857 5857 5856 5855 5854 5853 5852 5851 5849 5848 5846 5845 5843 5841 5839 5837 5835 5833 5830 5828 5825 5823 5820 5817 5815 5812
5833 5835 5838 5840 5843 5845 5846 5848 5850 5851 5852 5853 5854 5854 5854 5854 5854 5854 5853 5852 5851 5850 5849 5848 5847 5845 5844 5842 5841 5839 5837 5835 5833 5830 5828 5826 5823 5820 5818 5815 5812 5809 5807
5827 5830 5833 5835 5838 5840 5842 5844 5845 5847 5848 5849 5849 5850 5850 5850 5850 5849 5849 5848 5847 5846 5845 5844 5843 5841 5840 5838 5836 5834 5832 5830 5828 5826 5823 5821 5818 5815 5812 5809 5806 5803 5801
5821 5824 5827 5830 5833 5835 5837 5839 5840 5842 5843 5844 5845 5845 5845 5845 5845 5845 5845 5844 5843 5842 5841 5840 5838 5837 5835 5834 5832 5829 5828 5825 5823 5820 5818 5815 5812 5809 5806 5803 5800 5797 5794
5816 5818 5821 5825 5827 5830 5832 5833 5835 5837 5838 5839 5840 5840 5840 5841 5841 5840 5840 5839 5839 5837 5836 5835 5834 5832 5831 5829 5827 5825 5822 5820 5818 5815 5812 5809 5806 5803 5800 5796 5793 5790 5786
5809 5812 5815 5819 5821 5824 5826 5828 5830 5831 5832 5834 5834 5835 5835 5835 5835 5835 5835 5834 5833 5832 5831 5830 5829 5827 5826 5824 5822 5819 5817 5814 5812 5809 5806 5803 5800 5796 5793 5789 5786 5782 5778
5802 5806 5809 5812 5815 5818 5820 5822 5824 5825 5827 5828 5829 5830 5830 5830 5830 5830 5829 5829 5828 5827 5826 5825 5824 5822 5820 5819 5816 5814 5811 5809 5806 5802 5799 5796 5792 5789 5785 5782 5778 5774 5770
5795 5799 5802 5805 5808 5811 5814 5815 5817 5819 5820 5822 5823 5824 5824 5824 5824 5824 5824 5823 5822 5821 5820 5819 5818 5817 5815 5813 5811 5808 5805 5802 5799 5796 5792 5789 5785 5781 5778 5774 5770 5766 5762
5788 5791 5795 5798 5801 5804 5807 5809 5811 5812 5814 5815 5817 5817 5818 5818 5818 5818 5818 5817 5816 5816 5814 5813 5812 5810 5808 5807 5804 5802 5798 5795 5792 5789 5785 5781 5778 5774 5770 5766 5762 5758 5753
5780 5784 5787 5791 5794 5797 5800 5802 5804 5806 5807 5809 5810 5811 5812 5812 5812 5812 5811 5811 5810 5809 5808 5807 5805 5804 5802 5800 5798 5795 5792 5788 5785 5781 5778 5774 5770 5766 5762 5758 5754 5749 5744
5772 5776 5780 5783 5786 5790 5792 5795 5797 5798 5800 5802 5803 5804 5805 5805 5805 5805 5805 5804 5804 5803 5802 5800 5799 5797 5795 5792 5790 5787 5785 5782 5779 5775 5771 5766 5762 5758 5754 5749 5744 5740 5735
5764 5768 5772 5775 5778 5782 5785 5787 5789 5791 5793 5794 5796 5797 5797 5798 5798 5798 5798 5797 5797 5796 5795 5793 5792 5790 5788 5785 5782 5779 5776 5773 5771 5768 5763 5759 5754 5750 5745 5740 5735 5730 5724
5755 5759 5763 5767 5770 5773 5776 5779 5781 5784 5786 5787 5788 5789 5790 5790 5791 5791 5791 5790 5790 5789 5787 5786 5784 5782 5780 5777 5774 5771 5768 5764 5761 5759 5756 5751 5746 5741 5736 5730 5725 5719 5713
5747 5751 5754 5758 5761 5765 5768 5771 5773 5776 5778 5779 5780 5782 5783 5783 5783 5783 5783 5783 5782 5781 5780 5778 5776 5774 5772 5769 5766 5763 5760 5756 5752 5749 5746 5743 5737 5731 5726 5720 5714 5707 5701
5738 5742 5745 5749 5753 5756 5759 5762 5765 5767 5769 5771 5773 5774 5775 5775 5776 5776 5776 5775 5774 5773 5772 5770 5768 5766 5764 5761 5758 5754 5751 5747 5743 5739 5736 5732 5728 5722 5715 5709 5702 5695 5689